owner,sensor,date,latitude,longitude,sea_surface_height_above_sea_level,qcFlag 
COMPS,ioos:station:USF.COMPS:SHP:1,2015-03-01T00:00:00Z,30.0600,-84.2910,-0.195,1111122 
COMPS,ioos:station:USF.COMPS:SHP:1,2015-03-01T00:06:00Z,30.0600,-84.2910,-0.188,1111122 
COMPS,ioos:station:USF.COMPS:SHP:1,2015-03-01T00:12:00Z,30.0600,-84.2910,-0.179,1111122 
COMPS,ioos:station:USF.COMPS:SHP:1,2015-03-01T00:18:00Z,30.0600,-84.2910,-0.166,1111122 
COMPS,ioos:station:USF.COMPS:SHP:1,2015-03-01T00:24:00Z,30.0600,-84.2910,-0.157,1111122 
COMPS,ioos:station:USF.COMPS:SHP:1,2015-03-01T00:30:00Z,30.0600,-84.2910,-0.152,1111122 
COMPS,ioos:station:USF.COMPS:SHP:1,2015-03-01T00:36:00Z,30.0600,-84.2910,-0.147,1111122 
COMPS,ioos:station:USF.COMPS:SHP:1,2015-03-01T00:42:00Z,30.0600,-84.2910,-0.137,1111122 
COMPS,ioos:station:USF.COMPS:SHP:1,2015-03-01T00:48:00Z,30.0600,-84.2910,-0.127,1111122 
COMPS,ioos:station:USF.COMPS:SHP:1,2015-03-01T00:54:00Z,30.0600,-84.2910,-0.123,1111122 
COMPS,ioos:station:USF.COMPS:SHP:1,2015-03-01T01:00:00Z,30.0600,-84.2910,-0.126,1111122 
COMPS,ioos:station:USF.COMPS:SHP:1,2015-03-01T01:06:00Z,30.0600,-84.2910,-0.119,1111122 
COMPS,ioos:station:USF.COMPS:SHP:1,2015-03-01T01:12:00Z,30.0600,-84.2910,-0.105,1111122 
COMPS,ioos:station:USF.COMPS:SHP:1,2015-03-01T01:18:00Z,30.0600,-84.2910,-0.093,1111122 
COMPS,ioos:station:USF.COMPS:SHP:1,2015-03-01T01:24:00Z,30.0600,-84.2910,-0.092,1111122 
COMPS,ioos:station:USF.COMPS:SHP:1,2015-03-01T01:30:00Z,30.0600,-84.2910,-0.095,1111122 
COMPS,ioos:station:USF.COMPS:SHP:1,2015-03-01T01:36:00Z,30.0600,-84.2910,-0.082,1111122 
COMPS,ioos:station:USF.COMPS:SHP:1,2015-03-01T01:42:00Z,30.0600,-84.2910,-0.066,1111122 
COMPS,ioos:station:USF.COMPS:SHP:1,2015-03-01T01:48:00Z,30.0600,-84.2910,-0.055,1111122 
COMPS,ioos:station:USF.COMPS:SHP:1,2015-03-01T01:54:00Z,30.0600,-84.2910,-0.051,1111122 
COMPS,ioos:station:USF.COMPS:SHP:1,2015-03-01T02:00:00Z,30.0600,-84.2910,-0.053,1111122 
COMPS,ioos:station:USF.COMPS:SHP:1,2015-03-01T02:06:00Z,30.0600,-84.2910,-0.04,1111122 
COMPS,ioos:station:USF.COMPS:SHP:1,2015-03-01T02:12:00Z,30.0600,-84.2910,-0.023,1111122 
COMPS,ioos:station:USF.COMPS:SHP:1,2015-03-01T02:18:00Z,30.0600,-84.2910,-0.022,1111122 
COMPS,ioos:station:USF.COMPS:SHP:1,2015-03-01T02:24:00Z,30.0600,-84.2910,-0.023,1111122 
COMPS,ioos:station:USF.COMPS:SHP:1,2015-03-01T02:30:00Z,30.0600,-84.2910,-0.011,1111122 
COMPS,ioos:station:USF.COMPS:SHP:1,2015-03-01T02:36:00Z,30.0600,-84.2910,0.001,1111122 
COMPS,ioos:station:USF.COMPS:SHP:1,2015-03-01T02:42:00Z,30.0600,-84.2910,-0.001,1111122 
COMPS,ioos:station:USF.COMPS:SHP:1,2015-03-01T02:48:00Z,30.0600,-84.2910,-0.007,1111122 
COMPS,ioos:station:USF.COMPS:SHP:1,2015-03-01T02:54:00Z,30.0600,-84.2910,0.002,1111122 
COMPS,ioos:station:USF.COMPS:SHP:1,2015-03-01T03:00:00Z,30.0600,-84.2910,0.012,1111122 
COMPS,ioos:station:USF.COMPS:SHP:1,2015-03-01T03:06:00Z,30.0600,-84.2910,0.012,1111122 
COMPS,ioos:station:USF.COMPS:SHP:1,2015-03-01T03:12:00Z,30.0600,-84.2910,0.016,1111122 
COMPS,ioos:station:USF.COMPS:SHP:1,2015-03-01T03:18:00Z,30.0600,-84.2910,0.026,1111122 
COMPS,ioos:station:USF.COMPS:SHP:1,2015-03-01T03:24:00Z,30.0600,-84.2910,0.03,1111122 
COMPS,ioos:station:USF.COMPS:SHP:1,2015-03-01T03:30:00Z,30.0600,-84.2910,0.036,1111122 
COMPS,ioos:station:USF.COMPS:SHP:1,2015-03-01T03:36:00Z,30.0600,-84.2910,0.035,1111122 
COMPS,ioos:station:USF.COMPS:SHP:1,2015-03-01T03:42:00Z,30.0600,-84.2910,0.042,1111122 
COMPS,ioos:station:USF.COMPS:SHP:1,2015-03-01T03:48:00Z,30.0600,-84.2910,0.054,1111122 
COMPS,ioos:station:USF.COMPS:SHP:1,2015-03-01T03:54:00Z,30.0600,-84.2910,0.049,1111122 
COMPS,ioos:station:USF.COMPS:SHP:1,2015-03-01T04:00:00Z,30.0600,-84.2910,0.042,1111122 
COMPS,ioos:station:USF.COMPS:SHP:1,2015-03-01T04:06:00Z,30.0600,-84.2910,0.048,1111122 
COMPS,ioos:station:USF.COMPS:SHP:1,2015-03-01T04:12:00Z,30.0600,-84.2910,0.066,1111122 
COMPS,ioos:station:USF.COMPS:SHP:1,2015-03-01T04:18:00Z,30.0600,-84.2910,0.074,1111122 
COMPS,ioos:station:USF.COMPS:SHP:1,2015-03-01T04:24:00Z,30.0600,-84.2910,0.069,1111122 
COMPS,ioos:station:USF.COMPS:SHP:1,2015-03-01T04:30:00Z,30.0600,-84.2910,0.057,1111122 
COMPS,ioos:station:USF.COMPS:SHP:1,2015-03-01T04:36:00Z,30.0600,-84.2910,0.049,1111122 
COMPS,ioos:station:USF.COMPS:SHP:1,2015-03-01T04:42:00Z,30.0600,-84.2910,0.057,1111122 
COMPS,ioos:station:USF.COMPS:SHP:1,2015-03-01T04:48:00Z,30.0600,-84.2910,0.06,1111122 
COMPS,ioos:station:USF.COMPS:SHP:1,2015-03-01T04:54:00Z,30.0600,-84.2910,0.051,1111122 
COMPS,ioos:station:USF.COMPS:SHP:1,2015-03-01T07:00:00Z,30.0600,-84.2910,-0.141,1111122 
COMPS,ioos:station:USF.COMPS:SHP:1,2015-03-01T07:06:00Z,30.0600,-84.2910,-0.156,1111122 
COMPS,ioos:station:USF.COMPS:SHP:1,2015-03-01T07:12:00Z,30.0600,-84.2910,-0.175,1111122 
COMPS,ioos:station:USF.COMPS:SHP:1,2015-03-01T07:18:00Z,30.0600,-84.2910,-0.195,1111122 
COMPS,ioos:station:USF.COMPS:SHP:1,2015-03-01T07:24:00Z,30.0600,-84.2910,-0.212,1111122 
COMPS,ioos:station:USF.COMPS:SHP:1,2015-03-01T07:30:00Z,30.0600,-84.2910,-0.223,1111122 
COMPS,ioos:station:USF.COMPS:SHP:1,2015-03-01T07:36:00Z,30.0600,-84.2910,-0.236,1111122 
COMPS,ioos:station:USF.COMPS:SHP:1,2015-03-01T07:42:00Z,30.0600,-84.2910,-0.253,1111122 
COMPS,ioos:station:USF.COMPS:SHP:1,2015-03-01T07:48:00Z,30.0600,-84.2910,-0.268,1111122 
COMPS,ioos:station:USF.COMPS:SHP:1,2015-03-01T07:54:00Z,30.0600,-84.2910,-0.278,1111122 
COMPS,ioos:station:USF.COMPS:SHP:1,2015-03-01T08:00:00Z,30.0600,-84.2910,-0.295,1111122 
COMPS,ioos:station:USF.COMPS:SHP:1,2015-03-01T08:06:00Z,30.0600,-84.2910,-0.312,1111122 
COMPS,ioos:station:USF.COMPS:SHP:1,2015-03-01T08:12:00Z,30.0600,-84.2910,-0.329,1111122 
COMPS,ioos:station:USF.COMPS:SHP:1,2015-03-01T08:18:00Z,30.0600,-84.2910,-0.349,1111122 
COMPS,ioos:station:USF.COMPS:SHP:1,2015-03-01T08:24:00Z,30.0600,-84.2910,-0.368,1111122 
COMPS,ioos:station:USF.COMPS:SHP:1,2015-03-01T08:30:00Z,30.0600,-84.2910,-0.383,1111122 
COMPS,ioos:station:USF.COMPS:SHP:1,2015-03-01T08:36:00Z,30.0600,-84.2910,-0.398,1111122 
COMPS,ioos:station:USF.COMPS:SHP:1,2015-03-01T08:42:00Z,30.0600,-84.2910,-0.413,1111122 
COMPS,ioos:station:USF.COMPS:SHP:1,2015-03-01T08:48:00Z,30.0600,-84.2910,-0.428,1111122 
COMPS,ioos:station:USF.COMPS:SHP:1,2015-03-01T08:54:00Z,30.0600,-84.2910,-0.441,1111122 
COMPS,ioos:station:USF.COMPS:SHP:1,2015-03-01T09:00:00Z,30.0600,-84.2910,-0.453,1111122 
COMPS,ioos:station:USF.COMPS:SHP:1,2015-03-01T09:06:00Z,30.0600,-84.2910,-0.469,1111122 
COMPS,ioos:station:USF.COMPS:SHP:1,2015-03-01T09:12:00Z,30.0600,-84.2910,-0.484,1111122 
COMPS,ioos:station:USF.COMPS:SHP:1,2015-03-01T09:18:00Z,30.0600,-84.2910,-0.499,1111122 
COMPS,ioos:station:USF.COMPS:SHP:1,2015-03-01T09:24:00Z,30.0600,-84.2910,-0.517,1111122 
COMPS,ioos:station:USF.COMPS:SHP:1,2015-03-01T09:30:00Z,30.0600,-84.2910,-0.53,1111122 
COMPS,ioos:station:USF.COMPS:SHP:1,2015-03-01T09:36:00Z,30.0600,-84.2910,-0.544,1111122 
COMPS,ioos:station:USF.COMPS:SHP:1,2015-03-01T09:42:00Z,30.0600,-84.2910,-0.557,1111122 
COMPS,ioos:station:USF.COMPS:SHP:1,2015-03-01T09:48:00Z,30.0600,-84.2910,-0.566,1111122 
COMPS,ioos:station:USF.COMPS:SHP:1,2015-03-01T09:54:00Z,30.0600,-84.2910,-0.579,1111122 
COMPS,ioos:station:USF.COMPS:SHP:1,2015-03-01T11:00:00Z,30.0600,-84.2910,-0.628,1111122 
COMPS,ioos:station:USF.COMPS:SHP:1,2015-03-01T11:06:00Z,30.0600,-84.2910,-0.628,1111122 
COMPS,ioos:station:USF.COMPS:SHP:1,2015-03-01T11:12:00Z,30.0600,-84.2910,-0.629,1111122 
COMPS,ioos:station:USF.COMPS:SHP:1,2015-03-01T11:18:00Z,30.0600,-84.2910,-0.628,1111122 
COMPS,ioos:station:USF.COMPS:SHP:1,2015-03-01T11:24:00Z,30.0600,-84.2910,-0.629,1111122 
COMPS,ioos:station:USF.COMPS:SHP:1,2015-03-01T11:30:00Z,30.0600,-84.2910,-0.629,1111122 
COMPS,ioos:station:USF.COMPS:SHP:1,2015-03-01T11:36:00Z,30.0600,-84.2910,-0.643,1111122 
COMPS,ioos:station:USF.COMPS:SHP:1,2015-03-01T11:42:00Z,30.0600,-84.2910,-0.634,1111122 
COMPS,ioos:station:USF.COMPS:SHP:1,2015-03-01T11:48:00Z,30.0600,-84.2910,-0.628,1111122 
COMPS,ioos:station:USF.COMPS:SHP:1,2015-03-01T11:54:00Z,30.0600,-84.2910,-0.625,1111122 
COMPS,ioos:station:USF.COMPS:SHP:1,2015-03-01T12:00:00Z,30.0600,-84.2910,-0.618,1111122 
COMPS,ioos:station:USF.COMPS:SHP:1,2015-03-01T12:06:00Z,30.0600,-84.2910,-0.607,1111122 
COMPS,ioos:station:USF.COMPS:SHP:1,2015-03-01T12:12:00Z,30.0600,-84.2910,-0.6,1111122 
COMPS,ioos:station:USF.COMPS:SHP:1,2015-03-01T12:18:00Z,30.0600,-84.2910,-0.59,1111122 
COMPS,ioos:station:USF.COMPS:SHP:1,2015-03-01T12:24:00Z,30.0600,-84.2910,-0.573,1111122 
COMPS,ioos:station:USF.COMPS:SHP:1,2015-03-01T12:30:00Z,30.0600,-84.2910,-0.557,1111122 
COMPS,ioos:station:USF.COMPS:SHP:1,2015-03-01T12:36:00Z,30.0600,-84.2910,-0.543,1111122 
COMPS,ioos:station:USF.COMPS:SHP:1,2015-03-01T12:42:00Z,30.0600,-84.2910,-0.537,1111122 
COMPS,ioos:station:USF.COMPS:SHP:1,2015-03-01T12:48:00Z,30.0600,-84.2910,-0.529,1111122 
COMPS,ioos:station:USF.COMPS:SHP:1,2015-03-01T12:54:00Z,30.0600,-84.2910,-0.517,1111122 
COMPS,ioos:station:USF.COMPS:SHP:1,2015-03-01T13:00:00Z,30.0600,-84.2910,-0.504,1111122 
COMPS,ioos:station:USF.COMPS:SHP:1,2015-03-01T13:06:00Z,30.0600,-84.2910,-0.493,1111122 
COMPS,ioos:station:USF.COMPS:SHP:1,2015-03-01T13:12:00Z,30.0600,-84.2910,-0.477,1111122 
COMPS,ioos:station:USF.COMPS:SHP:1,2015-03-01T13:18:00Z,30.0600,-84.2910,-0.46,1111122 
COMPS,ioos:station:USF.COMPS:SHP:1,2015-03-01T13:24:00Z,30.0600,-84.2910,-0.445,1111122 
COMPS,ioos:station:USF.COMPS:SHP:1,2015-03-01T13:30:00Z,30.0600,-84.2910,-0.429,1111122 
COMPS,ioos:station:USF.COMPS:SHP:1,2015-03-01T13:36:00Z,30.0600,-84.2910,-0.404,1111122 
COMPS,ioos:station:USF.COMPS:SHP:1,2015-03-01T13:42:00Z,30.0600,-84.2910,-0.383,1111122 
COMPS,ioos:station:USF.COMPS:SHP:1,2015-03-01T13:48:00Z,30.0600,-84.2910,-0.366,1111122 
COMPS,ioos:station:USF.COMPS:SHP:1,2015-03-01T13:54:00Z,30.0600,-84.2910,-0.349,1111122 
COMPS,ioos:station:USF.COMPS:SHP:1,2015-03-01T14:00:00Z,30.0600,-84.2910,-0.332,1111122 
COMPS,ioos:station:USF.COMPS:SHP:1,2015-03-01T14:06:00Z,30.0600,-84.2910,-0.313,1111122 
COMPS,ioos:station:USF.COMPS:SHP:1,2015-03-01T14:12:00Z,30.0600,-84.2910,-0.296,1111122 
COMPS,ioos:station:USF.COMPS:SHP:1,2015-03-01T14:18:00Z,30.0600,-84.2910,-0.277,1111122 
COMPS,ioos:station:USF.COMPS:SHP:1,2015-03-01T14:24:00Z,30.0600,-84.2910,-0.26,1111122 
COMPS,ioos:station:USF.COMPS:SHP:1,2015-03-01T14:30:00Z,30.0600,-84.2910,-0.243,1111122 
COMPS,ioos:station:USF.COMPS:SHP:1,2015-03-01T14:36:00Z,30.0600,-84.2910,-0.228,1111122 
COMPS,ioos:station:USF.COMPS:SHP:1,2015-03-01T14:42:00Z,30.0600,-84.2910,-0.204,1111122 
COMPS,ioos:station:USF.COMPS:SHP:1,2015-03-01T14:48:00Z,30.0600,-84.2910,-0.186,1111122 
COMPS,ioos:station:USF.COMPS:SHP:1,2015-03-01T14:54:00Z,30.0600,-84.2910,-0.168,1111122 
COMPS,ioos:station:USF.COMPS:SHP:1,2015-03-01T15:00:00Z,30.0600,-84.2910,-0.15,1111122 
COMPS,ioos:station:USF.COMPS:SHP:1,2015-03-01T15:06:00Z,30.0600,-84.2910,-0.141,1111122 
COMPS,ioos:station:USF.COMPS:SHP:1,2015-03-01T15:12:00Z,30.0600,-84.2910,-0.121,1111122 
COMPS,ioos:station:USF.COMPS:SHP:1,2015-03-01T15:18:00Z,30.0600,-84.2910,-0.097,1111122 
COMPS,ioos:station:USF.COMPS:SHP:1,2015-03-01T15:24:00Z,30.0600,-84.2910,-0.088,1111122 
COMPS,ioos:station:USF.COMPS:SHP:1,2015-03-01T15:30:00Z,30.0600,-84.2910,-0.081,1111122 
COMPS,ioos:station:USF.COMPS:SHP:1,2015-03-01T15:36:00Z,30.0600,-84.2910,-0.072,1111122 
COMPS,ioos:station:USF.COMPS:SHP:1,2015-03-01T15:42:00Z,30.0600,-84.2910,-0.059,1111122 
COMPS,ioos:station:USF.COMPS:SHP:1,2015-03-01T15:48:00Z,30.0600,-84.2910,-0.038,1111122 
COMPS,ioos:station:USF.COMPS:SHP:1,2015-03-01T15:54:00Z,30.0600,-84.2910,-0.025,1111122 
COMPS,ioos:station:USF.COMPS:SHP:1,2015-03-01T16:00:00Z,30.0600,-84.2910,-0.008,1111122 
COMPS,ioos:station:USF.COMPS:SHP:1,2015-03-01T16:06:00Z,30.0600,-84.2910,0.005,1111122 
COMPS,ioos:station:USF.COMPS:SHP:1,2015-03-01T16:12:00Z,30.0600,-84.2910,0.021,1111122 
COMPS,ioos:station:USF.COMPS:SHP:1,2015-03-01T16:18:00Z,30.0600,-84.2910,0.032,1111122 
COMPS,ioos:station:USF.COMPS:SHP:1,2015-03-01T16:24:00Z,30.0600,-84.2910,0.044,1111122 
COMPS,ioos:station:USF.COMPS:SHP:1,2015-03-01T16:30:00Z,30.0600,-84.2910,0.058,1111122 
COMPS,ioos:station:USF.COMPS:SHP:1,2015-03-01T16:36:00Z,30.0600,-84.2910,0.065,1111122 
COMPS,ioos:station:USF.COMPS:SHP:1,2015-03-01T16:42:00Z,30.0600,-84.2910,0.081,1111122 
COMPS,ioos:station:USF.COMPS:SHP:1,2015-03-01T16:48:00Z,30.0600,-84.2910,0.095,1111122 
COMPS,ioos:station:USF.COMPS:SHP:1,2015-03-01T16:54:00Z,30.0600,-84.2910,0.103,1111122 
COMPS,ioos:station:USF.COMPS:SHP:1,2015-03-01T17:00:00Z,30.0600,-84.2910,0.107,1111122 
COMPS,ioos:station:USF.COMPS:SHP:1,2015-03-01T17:06:00Z,30.0600,-84.2910,0.118,1111122 
COMPS,ioos:station:USF.COMPS:SHP:1,2015-03-01T17:12:00Z,30.0600,-84.2910,0.13,1111122 
COMPS,ioos:station:USF.COMPS:SHP:1,2015-03-01T17:18:00Z,30.0600,-84.2910,0.133,1111122 
COMPS,ioos:station:USF.COMPS:SHP:1,2015-03-01T17:24:00Z,30.0600,-84.2910,0.13,1111122 
COMPS,ioos:station:USF.COMPS:SHP:1,2015-03-01T17:30:00Z,30.0600,-84.2910,0.134,1111122 
COMPS,ioos:station:USF.COMPS:SHP:1,2015-03-01T17:36:00Z,30.0600,-84.2910,0.148,1111122 
COMPS,ioos:station:USF.COMPS:SHP:1,2015-03-01T17:42:00Z,30.0600,-84.2910,0.144,1111122 
COMPS,ioos:station:USF.COMPS:SHP:1,2015-03-01T17:48:00Z,30.0600,-84.2910,0.149,1111122 
COMPS,ioos:station:USF.COMPS:SHP:1,2015-03-01T17:54:00Z,30.0600,-84.2910,0.156,1111122 
COMPS,ioos:station:USF.COMPS:SHP:1,2015-03-01T18:00:00Z,30.0600,-84.2910,0.15,1111122 
COMPS,ioos:station:USF.COMPS:SHP:1,2015-03-01T18:06:00Z,30.0600,-84.2910,0.148,1111122 
COMPS,ioos:station:USF.COMPS:SHP:1,2015-03-01T18:12:00Z,30.0600,-84.2910,0.144,1111122 
COMPS,ioos:station:USF.COMPS:SHP:1,2015-03-01T18:18:00Z,30.0600,-84.2910,0.141,1111122 
COMPS,ioos:station:USF.COMPS:SHP:1,2015-03-01T18:24:00Z,30.0600,-84.2910,0.149,1111122 
COMPS,ioos:station:USF.COMPS:SHP:1,2015-03-01T18:30:00Z,30.0600,-84.2910,0.149,1111122 
COMPS,ioos:station:USF.COMPS:SHP:1,2015-03-01T18:36:00Z,30.0600,-84.2910,0.141,1111122 
COMPS,ioos:station:USF.COMPS:SHP:1,2015-03-01T18:42:00Z,30.0600,-84.2910,0.135,1111122 
COMPS,ioos:station:USF.COMPS:SHP:1,2015-03-01T18:48:00Z,30.0600,-84.2910,0.131,1111122 
COMPS,ioos:station:USF.COMPS:SHP:1,2015-03-01T18:54:00Z,30.0600,-84.2910,0.124,1111122 
COMPS,ioos:station:USF.COMPS:SHP:1,2015-03-01T19:00:00Z,30.0600,-84.2910,0.115,1111122 
COMPS,ioos:station:USF.COMPS:SHP:1,2015-03-01T19:06:00Z,30.0600,-84.2910,0.106,1111122 
COMPS,ioos:station:USF.COMPS:SHP:1,2015-03-01T19:12:00Z,30.0600,-84.2910,0.105,1111122 
COMPS,ioos:station:USF.COMPS:SHP:1,2015-03-01T19:18:00Z,30.0600,-84.2910,0.092,1111122 
COMPS,ioos:station:USF.COMPS:SHP:1,2015-03-01T19:24:00Z,30.0600,-84.2910,0.083,1111122 
COMPS,ioos:station:USF.COMPS:SHP:1,2015-03-01T19:30:00Z,30.0600,-84.2910,0.078,1111122 
COMPS,ioos:station:USF.COMPS:SHP:1,2015-03-01T19:36:00Z,30.0600,-84.2910,0.071,1111122 
COMPS,ioos:station:USF.COMPS:SHP:1,2015-03-01T19:42:00Z,30.0600,-84.2910,0.064,1111122 
COMPS,ioos:station:USF.COMPS:SHP:1,2015-03-01T19:48:00Z,30.0600,-84.2910,0.053,1111122 
COMPS,ioos:station:USF.COMPS:SHP:1,2015-03-01T19:54:00Z,30.0600,-84.2910,0.04,1111122 
COMPS,ioos:station:USF.COMPS:SHP:1,2015-03-01T20:00:00Z,30.0600,-84.2910,0.027,1111122 
COMPS,ioos:station:USF.COMPS:SHP:1,2015-03-01T20:06:00Z,30.0600,-84.2910,0.02,1111122 
COMPS,ioos:station:USF.COMPS:SHP:1,2015-03-01T20:12:00Z,30.0600,-84.2910,0.015,1111122 
COMPS,ioos:station:USF.COMPS:SHP:1,2015-03-01T20:18:00Z,30.0600,-84.2910,0.006,1111122 
COMPS,ioos:station:USF.COMPS:SHP:1,2015-03-01T20:24:00Z,30.0600,-84.2910,-0.004,1111122 
COMPS,ioos:station:USF.COMPS:SHP:1,2015-03-01T20:30:00Z,30.0600,-84.2910,-0.018,1111122 
COMPS,ioos:station:USF.COMPS:SHP:1,2015-03-01T20:36:00Z,30.0600,-84.2910,-0.032,1111122 
COMPS,ioos:station:USF.COMPS:SHP:1,2015-03-01T20:42:00Z,30.0600,-84.2910,-0.045,1111122 
COMPS,ioos:station:USF.COMPS:SHP:1,2015-03-01T20:48:00Z,30.0600,-84.2910,-0.059,1111122 
COMPS,ioos:station:USF.COMPS:SHP:1,2015-03-01T20:54:00Z,30.0600,-84.2910,-0.069,1111122 
COMPS,ioos:station:USF.COMPS:SHP:1,2015-03-01T21:00:00Z,30.0600,-84.2910,-0.072,1111122 
COMPS,ioos:station:USF.COMPS:SHP:1,2015-03-01T21:06:00Z,30.0600,-84.2910,-0.073,1111122 
COMPS,ioos:station:USF.COMPS:SHP:1,2015-03-01T21:12:00Z,30.0600,-84.2910,-0.077,1111122 
COMPS,ioos:station:USF.COMPS:SHP:1,2015-03-01T21:18:00Z,30.0600,-84.2910,-0.085,1111122 
COMPS,ioos:station:USF.COMPS:SHP:1,2015-03-01T21:24:00Z,30.0600,-84.2910,-0.095,1111122 
COMPS,ioos:station:USF.COMPS:SHP:1,2015-03-01T21:30:00Z,30.0600,-84.2910,-0.112,1111122 
COMPS,ioos:station:USF.COMPS:SHP:1,2015-03-01T21:36:00Z,30.0600,-84.2910,-0.125,1111122 
COMPS,ioos:station:USF.COMPS:SHP:1,2015-03-01T21:42:00Z,30.0600,-84.2910,-0.136,1111122 
COMPS,ioos:station:USF.COMPS:SHP:1,2015-03-01T21:48:00Z,30.0600,-84.2910,-0.149,1111122 
COMPS,ioos:station:USF.COMPS:SHP:1,2015-03-01T21:54:00Z,30.0600,-84.2910,-0.162,1111122 
COMPS,ioos:station:USF.COMPS:SHP:1,2015-03-02T02:00:00Z,30.0600,-84.2910,0.019,1111122 
COMPS,ioos:station:USF.COMPS:SHP:1,2015-03-02T02:06:00Z,30.0600,-84.2910,0.028,1111122 
COMPS,ioos:station:USF.COMPS:SHP:1,2015-03-02T02:12:00Z,30.0600,-84.2910,0.039,1111122 
COMPS,ioos:station:USF.COMPS:SHP:1,2015-03-02T02:18:00Z,30.0600,-84.2910,0.045,1111122 
COMPS,ioos:station:USF.COMPS:SHP:1,2015-03-02T02:24:00Z,30.0600,-84.2910,0.05,1111122 
COMPS,ioos:station:USF.COMPS:SHP:1,2015-03-02T02:30:00Z,30.0600,-84.2910,0.061,1111122 
COMPS,ioos:station:USF.COMPS:SHP:1,2015-03-02T02:36:00Z,30.0600,-84.2910,0.069,1111122 
COMPS,ioos:station:USF.COMPS:SHP:1,2015-03-02T02:42:00Z,30.0600,-84.2910,0.071,1111122 
COMPS,ioos:station:USF.COMPS:SHP:1,2015-03-02T02:48:00Z,30.0600,-84.2910,0.08,1111122 
COMPS,ioos:station:USF.COMPS:SHP:1,2015-03-02T02:54:00Z,30.0600,-84.2910,0.09,1111122 
COMPS,ioos:station:USF.COMPS:SHP:1,2015-03-02T03:00:00Z,30.0600,-84.2910,0.099,1111122 
COMPS,ioos:station:USF.COMPS:SHP:1,2015-03-02T03:06:00Z,30.0600,-84.2910,0.106,1111122 
COMPS,ioos:station:USF.COMPS:SHP:1,2015-03-02T03:12:00Z,30.0600,-84.2910,0.124,1111122 
COMPS,ioos:station:USF.COMPS:SHP:1,2015-03-02T03:18:00Z,30.0600,-84.2910,0.143,1111122 
COMPS,ioos:station:USF.COMPS:SHP:1,2015-03-02T03:24:00Z,30.0600,-84.2910,0.144,1111122 
COMPS,ioos:station:USF.COMPS:SHP:1,2015-03-02T03:30:00Z,30.0600,-84.2910,0.146,1111122 
COMPS,ioos:station:USF.COMPS:SHP:1,2015-03-02T03:36:00Z,30.0600,-84.2910,0.148,1111122 
COMPS,ioos:station:USF.COMPS:SHP:1,2015-03-02T03:42:00Z,30.0600,-84.2910,0.155,1111122 
COMPS,ioos:station:USF.COMPS:SHP:1,2015-03-02T03:48:00Z,30.0600,-84.2910,0.163,1111122 
COMPS,ioos:station:USF.COMPS:SHP:1,2015-03-02T03:54:00Z,30.0600,-84.2910,0.171,1111122 
COMPS,ioos:station:USF.COMPS:SHP:1,2015-03-02T04:00:00Z,30.0600,-84.2910,0.189,1111122 
COMPS,ioos:station:USF.COMPS:SHP:1,2015-03-02T04:06:00Z,30.0600,-84.2910,0.2,1111122 
COMPS,ioos:station:USF.COMPS:SHP:1,2015-03-02T04:12:00Z,30.0600,-84.2910,0.199,1111122 
COMPS,ioos:station:USF.COMPS:SHP:1,2015-03-02T04:18:00Z,30.0600,-84.2910,0.203,1111122 
COMPS,ioos:station:USF.COMPS:SHP:1,2015-03-02T04:24:00Z,30.0600,-84.2910,0.208,1111122 
COMPS,ioos:station:USF.COMPS:SHP:1,2015-03-02T04:30:00Z,30.0600,-84.2910,0.206,1111122 
COMPS,ioos:station:USF.COMPS:SHP:1,2015-03-02T04:36:00Z,30.0600,-84.2910,0.209,1111122 
COMPS,ioos:station:USF.COMPS:SHP:1,2015-03-02T04:42:00Z,30.0600,-84.2910,0.221,1111122 
COMPS,ioos:station:USF.COMPS:SHP:1,2015-03-02T04:48:00Z,30.0600,-84.2910,0.23,1111122 
COMPS,ioos:station:USF.COMPS:SHP:1,2015-03-02T04:54:00Z,30.0600,-84.2910,0.224,1111122 
COMPS,ioos:station:USF.COMPS:SHP:1,2015-03-02T06:00:00Z,30.0600,-84.2910,0.173,1111122 
COMPS,ioos:station:USF.COMPS:SHP:1,2015-03-02T06:06:00Z,30.0600,-84.2910,0.18,1111122 
COMPS,ioos:station:USF.COMPS:SHP:1,2015-03-02T06:12:00Z,30.0600,-84.2910,0.186,1111122 
COMPS,ioos:station:USF.COMPS:SHP:1,2015-03-02T06:18:00Z,30.0600,-84.2910,0.178,1111122 
COMPS,ioos:station:USF.COMPS:SHP:1,2015-03-02T06:24:00Z,30.0600,-84.2910,0.154,1111122 
COMPS,ioos:station:USF.COMPS:SHP:1,2015-03-02T06:30:00Z,30.0600,-84.2910,0.134,1111122 
COMPS,ioos:station:USF.COMPS:SHP:1,2015-03-02T06:36:00Z,30.0600,-84.2910,0.128,1111122 
COMPS,ioos:station:USF.COMPS:SHP:1,2015-03-02T06:42:00Z,30.0600,-84.2910,0.125,1111122 
COMPS,ioos:station:USF.COMPS:SHP:1,2015-03-02T06:48:00Z,30.0600,-84.2910,0.116,1111122 
COMPS,ioos:station:USF.COMPS:SHP:1,2015-03-02T06:54:00Z,30.0600,-84.2910,0.101,1111122 
COMPS,ioos:station:USF.COMPS:SHP:1,2015-03-02T07:00:00Z,30.0600,-84.2910,0.085,1111122 
COMPS,ioos:station:USF.COMPS:SHP:1,2015-03-02T07:06:00Z,30.0600,-84.2910,0.072,1111122 
COMPS,ioos:station:USF.COMPS:SHP:1,2015-03-02T07:12:00Z,30.0600,-84.2910,0.057,1111122 
COMPS,ioos:station:USF.COMPS:SHP:1,2015-03-02T07:18:00Z,30.0600,-84.2910,0.037,1111122 
COMPS,ioos:station:USF.COMPS:SHP:1,2015-03-02T07:24:00Z,30.0600,-84.2910,0.026,1111122 
COMPS,ioos:station:USF.COMPS:SHP:1,2015-03-02T07:30:00Z,30.0600,-84.2910,0.008,1111122 
COMPS,ioos:station:USF.COMPS:SHP:1,2015-03-02T07:36:00Z,30.0600,-84.2910,-0.013,1111122 
COMPS,ioos:station:USF.COMPS:SHP:1,2015-03-02T07:42:00Z,30.0600,-84.2910,-0.026,1111122 
COMPS,ioos:station:USF.COMPS:SHP:1,2015-03-02T07:48:00Z,30.0600,-84.2910,-0.043,1111122 
COMPS,ioos:station:USF.COMPS:SHP:1,2015-03-02T07:54:00Z,30.0600,-84.2910,-0.059,1111122 
COMPS,ioos:station:USF.COMPS:SHP:1,2015-03-02T11:00:00Z,30.0600,-84.2910,-0.59,1111122 
COMPS,ioos:station:USF.COMPS:SHP:1,2015-03-02T11:06:00Z,30.0600,-84.2910,-0.602,1111122 
COMPS,ioos:station:USF.COMPS:SHP:1,2015-03-02T11:12:00Z,30.0600,-84.2910,-0.612,1111122 
COMPS,ioos:station:USF.COMPS:SHP:1,2015-03-02T11:18:00Z,30.0600,-84.2910,-0.621,1111122 
COMPS,ioos:station:USF.COMPS:SHP:1,2015-03-02T11:24:00Z,30.0600,-84.2910,-0.63,1111122 
COMPS,ioos:station:USF.COMPS:SHP:1,2015-03-02T11:30:00Z,30.0600,-84.2910,-0.637,1111122 
COMPS,ioos:station:USF.COMPS:SHP:1,2015-03-02T11:36:00Z,30.0600,-84.2910,-0.642,1111122 
COMPS,ioos:station:USF.COMPS:SHP:1,2015-03-02T11:42:00Z,30.0600,-84.2910,-0.644,1111122 
COMPS,ioos:station:USF.COMPS:SHP:1,2015-03-02T11:48:00Z,30.0600,-84.2910,-0.644,1111122 
COMPS,ioos:station:USF.COMPS:SHP:1,2015-03-02T11:54:00Z,30.0600,-84.2910,-0.629,1111122 
COMPS,ioos:station:USF.COMPS:SHP:1,2015-03-02T12:00:00Z,30.0600,-84.2910,-0.629,1111122 
COMPS,ioos:station:USF.COMPS:SHP:1,2015-03-02T12:06:00Z,30.0600,-84.2910,-0.629,1111122 
COMPS,ioos:station:USF.COMPS:SHP:1,2015-03-02T12:12:00Z,30.0600,-84.2910,-0.641,1111122 
COMPS,ioos:station:USF.COMPS:SHP:1,2015-03-02T12:18:00Z,30.0600,-84.2910,-0.642,1111122 
COMPS,ioos:station:USF.COMPS:SHP:1,2015-03-02T12:24:00Z,30.0600,-84.2910,-0.642,1111122 
COMPS,ioos:station:USF.COMPS:SHP:1,2015-03-02T12:30:00Z,30.0600,-84.2910,-0.643,1111122 
COMPS,ioos:station:USF.COMPS:SHP:1,2015-03-02T12:36:00Z,30.0600,-84.2910,-0.64,1111122 
COMPS,ioos:station:USF.COMPS:SHP:1,2015-03-02T12:42:00Z,30.0600,-84.2910,-0.634,1111122 
COMPS,ioos:station:USF.COMPS:SHP:1,2015-03-02T12:48:00Z,30.0600,-84.2910,-0.627,1111122 
COMPS,ioos:station:USF.COMPS:SHP:1,2015-03-02T12:54:00Z,30.0600,-84.2910,-0.624,1111122 
COMPS,ioos:station:USF.COMPS:SHP:1,2015-03-02T13:00:00Z,30.0600,-84.2910,-0.618,1111122 
COMPS,ioos:station:USF.COMPS:SHP:1,2015-03-02T13:06:00Z,30.0600,-84.2910,-0.606,1111122 
COMPS,ioos:station:USF.COMPS:SHP:1,2015-03-02T13:12:00Z,30.0600,-84.2910,-0.589,1111122 
COMPS,ioos:station:USF.COMPS:SHP:1,2015-03-02T13:18:00Z,30.0600,-84.2910,-0.574,1111122 
COMPS,ioos:station:USF.COMPS:SHP:1,2015-03-02T13:24:00Z,30.0600,-84.2910,-0.563,1111122 
COMPS,ioos:station:USF.COMPS:SHP:1,2015-03-02T13:30:00Z,30.0600,-84.2910,-0.546,1111122 
COMPS,ioos:station:USF.COMPS:SHP:1,2015-03-02T13:36:00Z,30.0600,-84.2910,-0.526,1111122 
COMPS,ioos:station:USF.COMPS:SHP:1,2015-03-02T13:42:00Z,30.0600,-84.2910,-0.51,1111122 
COMPS,ioos:station:USF.COMPS:SHP:1,2015-03-02T13:48:00Z,30.0600,-84.2910,-0.496,1111122 
COMPS,ioos:station:USF.COMPS:SHP:1,2015-03-02T13:54:00Z,30.0600,-84.2910,-0.481,1111122 